Regional Weather Roundup
Issued by NWS

Home | Current Version | Previous Version | Text Only | Print | Product List | Glossary On
Versions: 1 2 3 4 5 6 7 8 9 10 11 12 13 14 15 16 17 18 19 20 21 22 23 24 25 26 27 28 29 30 31 32 33 34 35 36 37 38 39 40 41 42 43 44 45 46 47 48 49 50
000
ASUS43 KTOP 240459
RWRKS

WEATHER ROUNDUP FOR KANSAS
NATIONAL WEATHER SERVICE GOODLAND KS
1200 AM CDT THU JUL 24 2014

NOTE:  "FAIR" INDICATES FEW OR NO CLOUDS BELOW 12,000 FEET WITH NO
SIGNIFICANT WEATHER AND/OR OBSTRUCTIONS TO VISIBILITY.

KSZ001>006-013>018-027>032-041>047-240600-
NORTHWEST KANSAS

CITY           SKY/WX    TMP DP  RH WIND       PRES   REMARKS
GOODLAND       MOCLDY    73  64  73 SE9       30.20S
HAYS           CLEAR     72  59  64 E10       30.16S
HILL CITY      CLEAR     69  64  84 E3        30.16F
RUSSELL        CLEAR     73  62  68 E9        30.15R
$$

KSZ061>065-074>080-084>089-240600-
SOUTHWEST KANSAS

CITY           SKY/WX    TMP DP  RH WIND       PRES   REMARKS
DODGE CITY     CLEAR     75  69  81 SE10      30.18R
ELKHART          N/A     71  65  81 SE7         N/A
GARDEN CITY    PTCLDY    75  69  81 SE12      30.18R
GREAT BEND     CLEAR     73  63  68 E7        30.15R
LIBERAL        PTCLDY    81  68  65 SE13G18   30.19S
PRATT          CLEAR     73  63  68 SE6       30.17S
$$

KSZ066>073-081>083-090>101-240600-
SOUTHEAST KANSAS

CITY           SKY/WX    TMP DP  RH WIND       PRES   REMARKS
CHANUTE        CLEAR     74  66  76 E6        30.11S
COFFEYVILLE    CLEAR     72  68  87 NE5       30.08F
HUTCHINSON     CLEAR     73  63  70 E5        30.15R
MEDICINE LODGE   N/A     77  66  68 E5        30.13S
NEWTON         CLEAR     72  57  60 E3        30.18S
PARSONS        CLEAR     70  66  87 N5        30.11F
WICHITA INTL   CLEAR     76  65  68 SE7       30.13S
WICHITA JABRA  CLEAR     69  65  86 E3        30.13S
WINFIELD       CLEAR     73  71  93 CALM      30.13S
$$

KSZ007>012-019>026-033>040-048>060-102>105-240600-
NORTHEAST KANSAS

CITY           SKY/WX    TMP DP  RH WIND       PRES   REMARKS
CONCORDIA      CLEAR     70  62  76 E7        30.15F
EMPORIA        CLEAR     72  65  78 NE3       30.13S
LAWRENCE       CLEAR     71  64  78 NE7       30.13S
MANHATTAN      CLEAR     70  63  78 CALM      30.14S
OLATHE IND     CLEAR     73  62  68 E7        30.15S
OLATHE EXE     CLEAR     72  62  71 E6        30.14S
SALINA         CLEAR     78  62  57 E7        30.14S
TOPEKA BILLARD CLEAR     72  66  81 CALM      30.14S
TOPEKA FORBES  CLEAR     73  64  73 E3        30.14S
$$


USA.gov is the U.S. government's official web portal to all federal, state and local government web resources and services.